Year,Month,Day,Hour,Minute,Value (Times are PST for temperature in C)
2016,08,18,00,00,16.00
2016,08,18,00,01,16.00
2016,08,18,00,02,16.00
2016,08,18,00,03,16.00
2016,08,18,00,04,16.00
2016,08,18,00,05,16.00
2016,08,18,00,06,16.00
2016,08,18,00,07,16.00
2016,08,18,00,08,16.00
2016,08,18,00,09,16.00
2016,08,18,00,10,16.00
2016,08,18,00,11,16.00
2016,08,18,00,12,16.00
2016,08,18,00,13,15.90
2016,08,18,00,14,15.90
2016,08,18,00,15,15.90
2016,08,18,00,16,15.90
2016,08,18,00,17,15.90
2016,08,18,00,18,15.90
2016,08,18,00,19,15.90
2016,08,18,00,20,15.90
2016,08,18,00,21,15.90
2016,08,18,00,22,15.90
2016,08,18,00,23,15.90
2016,08,18,00,24,15.90
2016,08,18,00,25,15.90
2016,08,18,00,26,15.90
2016,08,18,00,27,15.90
2016,08,18,00,28,15.90
2016,08,18,00,29,15.90
2016,08,18,00,30,15.90
2016,08,18,00,31,15.90
2016,08,18,00,32,15.90
2016,08,18,00,33,15.90
2016,08,18,00,34,15.80
2016,08,18,00,35,15.80
2016,08,18,00,36,15.80
2016,08,18,00,37,15.80
2016,08,18,00,38,15.80
2016,08,18,00,39,15.80
2016,08,18,00,40,15.80
2016,08,18,00,41,15.80
2016,08,18,00,42,15.80
2016,08,18,00,43,15.80
2016,08,18,00,44,15.80
2016,08,18,00,45,15.80
2016,08,18,00,46,15.80
2016,08,18,00,47,15.80
2016,08,18,00,48,15.80
2016,08,18,00,49,15.80
2016,08,18,00,50,15.80
2016,08,18,00,51,15.80
2016,08,18,00,52,15.80
2016,08,18,00,53,15.80
2016,08,18,00,54,15.80
2016,08,18,00,55,15.80
2016,08,18,00,56,15.80
2016,08,18,00,57,15.70
2016,08,18,00,58,15.70
2016,08,18,00,59,15.70
2016,08,18,01,00,15.70
2016,08,18,01,01,15.70
2016,08,18,01,02,15.70
2016,08,18,01,03,15.70
2016,08,18,01,04,15.70
2016,08,18,01,05,15.70
2016,08,18,01,06,15.60
2016,08,18,01,07,15.60
2016,08,18,01,08,15.60
2016,08,18,01,09,15.60
2016,08,18,01,10,15.60
2016,08,18,01,11,15.60
2016,08,18,01,12,15.60
2016,08,18,01,13,15.50
2016,08,18,01,14,15.50
2016,08,18,01,15,15.50
2016,08,18,01,16,15.50
2016,08,18,01,17,15.40
2016,08,18,01,18,15.40
2016,08,18,01,19,15.40
2016,08,18,01,20,15.40
2016,08,18,01,21,15.40
2016,08,18,01,22,15.40
2016,08,18,01,23,15.40
2016,08,18,01,24,15.40
2016,08,18,01,25,15.40
2016,08,18,01,26,15.40
2016,08,18,01,27,15.50
2016,08,18,01,28,15.50
2016,08,18,01,29,15.50
2016,08,18,01,30,15.50
2016,08,18,01,31,15.50
2016,08,18,01,32,15.50
2016,08,18,01,33,15.50
2016,08,18,01,34,15.50
2016,08,18,01,35,15.50
2016,08,18,01,36,15.50
2016,08,18,01,37,15.50
2016,08,18,01,38,15.50
2016,08,18,01,39,15.50
2016,08,18,01,40,15.40
2016,08,18,01,41,15.40
2016,08,18,01,42,15.40
2016,08,18,01,43,15.40
2016,08,18,01,44,15.40
2016,08,18,01,45,15.40
2016,08,18,01,46,15.40
2016,08,18,01,47,15.40
2016,08,18,01,48,15.40
2016,08,18,01,49,15.30
2016,08,18,01,50,15.30
2016,08,18,01,51,15.30
2016,08,18,01,52,15.30
2016,08,18,01,53,15.30
2016,08,18,01,54,15.30
2016,08,18,01,55,15.30
2016,08,18,01,56,15.30
2016,08,18,01,57,15.20
2016,08,18,01,58,15.20
2016,08,18,01,59,15.20
2016,08,18,02,00,15.20
2016,08,18,02,01,15.20
2016,08,18,02,02,15.20
2016,08,18,02,03,15.20
2016,08,18,02,04,15.20
2016,08,18,02,05,15.20
2016,08,18,02,06,15.10
2016,08,18,02,07,15.10
2016,08,18,02,08,15.10
2016,08,18,02,09,15.10
2016,08,18,02,10,15.10
2016,08,18,02,11,15.10
2016,08,18,02,12,15.10
2016,08,18,02,13,15.10
2016,08,18,02,14,15.10
2016,08,18,02,15,15.10
2016,08,18,02,16,15.10
2016,08,18,02,17,15.10
2016,08,18,02,18,15.00
2016,08,18,02,19,15.00
2016,08,18,02,20,15.00
2016,08,18,02,21,14.90
2016,08,18,02,22,14.90
2016,08,18,02,23,14.90
2016,08,18,02,24,14.90
2016,08,18,02,25,14.90
2016,08,18,02,26,14.90
2016,08,18,02,27,14.90
2016,08,18,02,28,14.90
2016,08,18,02,29,14.90
2016,08,18,02,30,14.90
2016,08,18,02,31,14.90
2016,08,18,02,32,14.90
2016,08,18,02,33,14.90
2016,08,18,02,34,14.90
2016,08,18,02,35,14.90
2016,08,18,02,36,14.90
2016,08,18,02,37,14.90
2016,08,18,02,38,14.90
2016,08,18,02,39,14.90
2016,08,18,02,40,14.90
2016,08,18,02,41,14.90
2016,08,18,02,42,14.90
2016,08,18,02,43,14.90
2016,08,18,02,44,14.90
2016,08,18,02,45,14.90
2016,08,18,02,46,14.80
2016,08,18,02,47,14.80
2016,08,18,02,48,14.80
2016,08,18,02,49,14.80
2016,08,18,02,50,14.80
2016,08,18,02,51,14.80
2016,08,18,02,52,14.70
2016,08,18,02,53,14.70
2016,08,18,02,54,14.70
2016,08,18,02,55,14.70
2016,08,18,02,56,14.70
2016,08,18,02,57,14.70
2016,08,18,02,58,14.70
2016,08,18,02,59,14.60
2016,08,18,03,00,14.60
2016,08,18,03,01,14.60
2016,08,18,03,02,14.60
2016,08,18,03,03,14.60
2016,08,18,03,04,14.60
2016,08,18,03,05,14.70
2016,08,18,03,06,14.60
2016,08,18,03,07,14.60
2016,08,18,03,08,14.70
2016,08,18,03,09,14.70
2016,08,18,03,10,14.70
2016,08,18,03,11,14.70
2016,08,18,03,12,14.70
2016,08,18,03,13,14.70
2016,08,18,03,14,14.70
2016,08,18,03,15,14.60
2016,08,18,03,16,14.60
2016,08,18,03,17,14.60
2016,08,18,03,18,14.60
2016,08,18,03,19,14.60
2016,08,18,03,20,14.50
2016,08,18,03,21,14.50
2016,08,18,03,22,14.50
2016,08,18,03,23,14.50
2016,08,18,03,24,14.40
2016,08,18,03,25,14.40
2016,08,18,03,26,14.40
2016,08,18,03,27,14.40
2016,08,18,03,28,14.40
2016,08,18,03,29,14.40
2016,08,18,03,30,14.50
2016,08,18,03,31,14.50
2016,08,18,03,32,14.50
2016,08,18,03,33,14.50
2016,08,18,03,34,14.50
2016,08,18,03,35,14.50
2016,08,18,03,36,14.50
2016,08,18,03,37,14.50
2016,08,18,03,38,14.40
2016,08,18,03,39,14.40
2016,08,18,03,40,14.40
2016,08,18,03,41,14.30
2016,08,18,03,42,14.30
2016,08,18,03,43,14.30
2016,08,18,03,44,14.30
2016,08,18,03,45,14.30
2016,08,18,03,46,14.30
2016,08,18,03,47,14.30
2016,08,18,03,48,14.30
2016,08,18,03,49,14.30
2016,08,18,03,50,14.20
2016,08,18,03,51,14.20
2016,08,18,03,52,14.20
2016,08,18,03,53,14.20
2016,08,18,03,54,14.20
2016,08,18,03,55,14.20
2016,08,18,03,56,14.20
2016,08,18,03,57,14.10
2016,08,18,03,58,14.10
2016,08,18,03,59,14.10
2016,08,18,04,00,14.10
2016,08,18,04,01,14.10
2016,08,18,04,02,14.10
2016,08,18,04,03,14.10
2016,08,18,04,04,14.10
2016,08,18,04,05,14.10
2016,08,18,04,06,14.10
2016,08,18,04,07,14.10
2016,08,18,04,08,14.10
2016,08,18,04,09,14.10
2016,08,18,04,10,14.10
2016,08,18,04,11,14.00
2016,08,18,04,12,14.00
2016,08,18,04,13,14.00
2016,08,18,04,14,14.00
2016,08,18,04,15,14.00
2016,08,18,04,16,13.90
2016,08,18,04,17,13.90
2016,08,18,04,18,13.90
2016,08,18,04,19,13.90
2016,08,18,04,20,13.90
2016,08,18,04,21,13.90
2016,08,18,04,22,13.90
2016,08,18,04,23,13.90
2016,08,18,04,24,13.90
2016,08,18,04,25,13.90
2016,08,18,04,26,13.90
2016,08,18,04,27,13.90
2016,08,18,04,28,13.90
2016,08,18,04,29,13.90
2016,08,18,04,30,13.90
2016,08,18,04,31,13.90
2016,08,18,04,32,13.80
2016,08,18,04,33,13.80
2016,08,18,04,34,13.80
2016,08,18,04,35,13.80
2016,08,18,04,36,13.80
2016,08,18,04,37,13.80
2016,08,18,04,38,13.80
2016,08,18,04,39,13.80
2016,08,18,04,40,13.80
2016,08,18,04,41,13.80
2016,08,18,04,42,13.70
2016,08,18,04,43,13.70
2016,08,18,04,44,13.70
2016,08,18,04,45,13.70
2016,08,18,04,46,13.70
2016,08,18,04,47,13.70
2016,08,18,04,48,13.60
2016,08,18,04,49,13.60
2016,08,18,04,50,13.60
2016,08,18,04,51,13.60
2016,08,18,04,52,13.60
2016,08,18,04,53,13.60
2016,08,18,04,54,13.60
2016,08,18,04,55,13.60
2016,08,18,04,56,13.60
2016,08,18,04,57,13.60
2016,08,18,04,58,13.60
2016,08,18,04,59,13.50
2016,08,18,05,00,13.50
2016,08,18,05,01,13.40
2016,08,18,05,02,13.40
2016,08,18,05,03,13.40
2016,08,18,05,04,13.40
2016,08,18,05,05,13.40
2016,08,18,05,06,13.40
2016,08,18,05,07,13.30
2016,08,18,05,08,13.30
2016,08,18,05,09,13.30
2016,08,18,05,10,13.30
2016,08,18,05,11,13.30
2016,08,18,05,12,13.30
2016,08,18,05,13,13.20
2016,08,18,05,14,13.20
2016,08,18,05,15,13.20
2016,08,18,05,16,13.20
2016,08,18,05,17,13.20
2016,08,18,05,18,13.20
2016,08,18,05,19,13.10
2016,08,18,05,20,13.10
2016,08,18,05,21,13.10
2016,08,18,05,22,13.10
2016,08,18,05,23,13.10
2016,08,18,05,24,13.10
2016,08,18,05,25,13.00
2016,08,18,05,26,13.00
2016,08,18,05,27,13.00
2016,08,18,05,28,13.00
2016,08,18,05,29,13.00
2016,08,18,05,30,13.00
2016,08,18,05,31,13.00
2016,08,18,05,32,12.90
2016,08,18,05,33,12.90
2016,08,18,05,34,12.90
2016,08,18,05,35,12.90
2016,08,18,05,36,12.90
2016,08,18,05,37,12.90
2016,08,18,05,38,12.90
2016,08,18,05,39,12.90
2016,08,18,05,40,12.90
2016,08,18,05,41,12.90
2016,08,18,05,42,12.90
2016,08,18,05,43,12.90
2016,08,18,05,44,12.90
2016,08,18,05,45,12.90
2016,08,18,05,46,12.90
2016,08,18,05,47,12.90
2016,08,18,05,48,12.90
2016,08,18,05,49,12.90
2016,08,18,05,50,12.90
2016,08,18,05,51,12.90
2016,08,18,05,52,12.90
2016,08,18,05,53,13.00
2016,08,18,05,54,12.90
2016,08,18,05,55,13.00
2016,08,18,05,56,13.00
2016,08,18,05,57,13.00
2016,08,18,05,58,13.00
2016,08,18,05,59,13.00
2016,08,18,06,00,13.10
2016,08,18,06,01,13.10
2016,08,18,06,02,13.10
2016,08,18,06,03,13.10
2016,08,18,06,04,13.10
2016,08,18,06,05,13.10
2016,08,18,06,06,13.10
2016,08,18,06,07,13.10
2016,08,18,06,08,13.00
2016,08,18,06,09,13.00
2016,08,18,06,10,13.00
2016,08,18,06,11,12.90
2016,08,18,06,12,12.90
2016,08,18,06,13,12.90
2016,08,18,06,14,13.00
2016,08,18,06,15,13.00
2016,08,18,06,16,13.00
2016,08,18,06,17,13.10
2016,08,18,06,18,13.10
2016,08,18,06,19,13.10
2016,08,18,06,20,13.10
2016,08,18,06,21,13.10
2016,08,18,06,22,13.10
2016,08,18,06,23,13.10
2016,08,18,06,24,13.00
2016,08,18,06,25,13.00
2016,08,18,06,26,13.00
2016,08,18,06,27,13.00
2016,08,18,06,28,12.90
2016,08,18,06,29,12.90
2016,08,18,06,30,12.90
2016,08,18,06,31,12.90
2016,08,18,06,32,12.90
2016,08,18,06,33,12.90
2016,08,18,06,34,12.90
2016,08,18,06,35,12.90
2016,08,18,06,36,12.80
2016,08,18,06,37,12.80
2016,08,18,06,38,12.80
2016,08,18,06,39,12.80
2016,08,18,06,40,12.80
2016,08,18,06,41,12.90
2016,08,18,06,42,12.90
2016,08,18,06,43,12.90
2016,08,18,06,44,12.90
2016,08,18,06,45,12.90
2016,08,18,06,46,12.90
2016,08,18,06,47,12.90
2016,08,18,06,48,12.90
2016,08,18,06,49,12.90
2016,08,18,06,50,12.90
2016,08,18,06,51,12.90
2016,08,18,06,52,12.90
2016,08,18,06,53,12.90
2016,08,18,06,54,12.90
2016,08,18,06,55,12.90
2016,08,18,06,56,12.90
2016,08,18,06,57,12.90
2016,08,18,06,58,12.90
2016,08,18,06,59,12.90
2016,08,18,07,00,12.90
2016,08,18,07,01,12.90
2016,08,18,07,02,12.90
2016,08,18,07,03,12.90
2016,08,18,07,04,12.90
2016,08,18,07,05,12.90
2016,08,18,07,06,13.00
2016,08,18,07,07,13.00
2016,08,18,07,08,13.10
2016,08,18,07,09,13.20
2016,08,18,07,10,13.20
2016,08,18,07,11,13.30
2016,08,18,07,12,13.40
2016,08,18,07,13,13.50
2016,08,18,07,14,13.60
2016,08,18,07,15,13.70
2016,08,18,07,16,13.70
2016,08,18,07,17,13.80
2016,08,18,07,18,13.80
2016,08,18,07,19,13.90
2016,08,18,07,20,14.00
2016,08,18,07,21,14.00
2016,08,18,07,22,14.10
2016,08,18,07,23,14.20
2016,08,18,07,24,14.20
2016,08,18,07,25,14.30
2016,08,18,07,26,14.30
2016,08,18,07,27,14.40
2016,08,18,07,28,14.50
2016,08,18,07,29,14.60
2016,08,18,07,30,14.70
2016,08,18,07,31,14.80
2016,08,18,07,32,14.90
2016,08,18,07,33,15.00
2016,08,18,07,34,15.10
2016,08,18,07,35,15.10
2016,08,18,07,36,15.20
2016,08,18,07,37,15.20
2016,08,18,07,38,15.30
2016,08,18,07,39,15.30
2016,08,18,07,40,15.30
2016,08,18,07,41,15.40
2016,08,18,07,42,15.40
2016,08,18,07,43,15.50
2016,08,18,07,44,15.60
2016,08,18,07,45,15.60
2016,08,18,07,46,15.70
2016,08,18,07,47,15.80
2016,08,18,07,48,15.90
2016,08,18,07,49,16.00
2016,08,18,07,50,16.10
2016,08,18,07,51,16.10
2016,08,18,07,52,16.20
2016,08,18,07,53,16.30
2016,08,18,07,54,16.40
2016,08,18,07,55,16.50
2016,08,18,07,56,16.60
2016,08,18,07,57,16.70
2016,08,18,07,58,16.80
2016,08,18,07,59,17.00
2016,08,18,08,00,17.10
2016,08,18,08,01,17.30
2016,08,18,08,02,17.40
2016,08,18,08,03,17.50
2016,08,18,08,04,17.60
2016,08,18,08,05,17.70
2016,08,18,08,06,17.70
2016,08,18,08,07,17.90
2016,08,18,08,08,18.00
2016,08,18,08,09,18.10
2016,08,18,08,10,18.20
2016,08,18,08,11,18.30
2016,08,18,08,12,18.40
2016,08,18,08,13,18.50
2016,08,18,08,14,18.60
2016,08,18,08,15,18.70
2016,08,18,08,16,18.70
2016,08,18,08,17,18.80
2016,08,18,08,18,18.90
2016,08,18,08,19,18.90
2016,08,18,08,20,19.00
2016,08,18,08,21,19.10
2016,08,18,08,22,19.20
2016,08,18,08,23,19.20
2016,08,18,08,24,19.30
2016,08,18,08,25,19.40
2016,08,18,08,26,19.50
2016,08,18,08,27,19.60
2016,08,18,08,28,19.70
2016,08,18,08,29,19.80
2016,08,18,08,30,19.80
2016,08,18,08,31,19.90
2016,08,18,08,32,20.00
2016,08,18,08,33,20.00
2016,08,18,08,34,20.10
2016,08,18,08,35,20.20
2016,08,18,08,36,20.20
2016,08,18,08,37,20.30
2016,08,18,08,38,20.30
2016,08,18,08,39,20.40
2016,08,18,08,40,20.40
2016,08,18,08,41,20.40
2016,08,18,08,42,20.50
2016,08,18,08,43,20.60
2016,08,18,08,44,20.70
2016,08,18,08,45,20.70
2016,08,18,08,46,20.80
2016,08,18,08,47,20.90
2016,08,18,08,48,20.90
2016,08,18,08,49,21.00
2016,08,18,08,50,21.00
2016,08,18,08,51,21.00
2016,08,18,08,52,21.00
2016,08,18,08,53,21.10
2016,08,18,08,54,21.10
2016,08,18,08,55,21.20
2016,08,18,08,56,21.20
2016,08,18,08,57,21.30
2016,08,18,08,58,21.30
2016,08,18,08,59,21.30
2016,08,18,09,00,21.40
2016,08,18,09,01,21.40
2016,08,18,09,02,21.40
2016,08,18,09,03,21.40
2016,08,18,09,04,21.50
2016,08,18,09,05,21.50
2016,08,18,09,06,21.50
2016,08,18,09,07,21.60
2016,08,18,09,08,21.60
2016,08,18,09,09,21.60
2016,08,18,09,10,21.60
2016,08,18,09,11,21.70
2016,08,18,09,12,21.70
2016,08,18,09,13,21.80
2016,08,18,09,14,21.80
2016,08,18,09,15,21.80
2016,08,18,09,16,21.90
2016,08,18,09,17,21.90
2016,08,18,09,18,22.00
2016,08,18,09,19,22.20
2016,08,18,09,20,22.20
2016,08,18,09,21,22.30
2016,08,18,09,22,22.30
2016,08,18,09,23,22.30
2016,08,18,09,24,22.40
2016,08,18,09,25,22.40
2016,08,18,09,26,22.50
2016,08,18,09,27,22.50
2016,08,18,09,28,22.50
2016,08,18,09,29,22.60
2016,08,18,09,30,22.60
2016,08,18,09,31,22.60
2016,08,18,09,32,22.60
2016,08,18,09,33,22.70
2016,08,18,09,34,22.80
2016,08,18,09,35,22.90
2016,08,18,09,36,23.00
2016,08,18,09,37,23.10
2016,08,18,09,38,23.10
2016,08,18,09,39,23.20
2016,08,18,09,40,23.30
2016,08,18,09,41,23.40
2016,08,18,09,42,23.40
2016,08,18,09,43,23.50
2016,08,18,09,44,23.60
2016,08,18,09,45,23.60
2016,08,18,09,46,23.70
2016,08,18,09,47,23.70
2016,08,18,09,48,23.80
2016,08,18,09,49,23.80
2016,08,18,09,50,23.90
2016,08,18,09,51,24.00
2016,08,18,09,52,24.00
2016,08,18,09,53,24.00
2016,08,18,09,54,24.00
2016,08,18,09,55,24.00
2016,08,18,09,56,24.10
2016,08,18,09,57,24.10
2016,08,18,09,58,24.20
2016,08,18,09,59,24.30
2016,08,18,10,00,24.30
2016,08,18,10,01,24.40
2016,08,18,10,02,24.40
2016,08,18,10,03,24.40
2016,08,18,10,04,24.50
2016,08,18,10,05,24.50
2016,08,18,10,06,24.60
2016,08,18,10,07,24.70
2016,08,18,10,08,24.80
2016,08,18,10,09,24.90
2016,08,18,10,10,24.90
2016,08,18,10,11,25.10
2016,08,18,10,12,25.20
2016,08,18,10,13,25.30
2016,08,18,10,14,25.30
2016,08,18,10,15,25.40
2016,08,18,10,16,25.30
2016,08,18,10,17,25.10
2016,08,18,10,18,25.00
2016,08,18,10,19,24.90
2016,08,18,10,20,24.90
2016,08,18,10,21,24.80
2016,08,18,10,22,24.70
2016,08,18,10,23,24.70
2016,08,18,10,24,24.80
2016,08,18,10,25,24.90
2016,08,18,10,26,25.00
2016,08,18,10,27,25.10
2016,08,18,10,28,25.10
2016,08,18,10,29,25.10
2016,08,18,10,30,25.10
2016,08,18,10,31,25.00
2016,08,18,10,32,25.00
2016,08,18,10,33,24.90
2016,08,18,10,34,24.90
2016,08,18,10,35,24.90
2016,08,18,10,36,24.90
2016,08,18,10,37,24.90
2016,08,18,10,38,24.90
2016,08,18,10,39,24.90
2016,08,18,10,40,25.00
2016,08,18,10,41,25.00
2016,08,18,10,42,25.00
2016,08,18,10,43,25.10
2016,08,18,10,44,25.20
2016,08,18,10,45,25.30
2016,08,18,10,46,25.30
2016,08,18,10,47,25.30
2016,08,18,10,48,25.30
2016,08,18,10,49,25.30
2016,08,18,10,50,25.30
2016,08,18,10,51,25.40
2016,08,18,10,52,25.40
2016,08,18,10,53,25.40
2016,08,18,10,54,25.60
2016,08,18,10,55,25.70
2016,08,18,10,56,25.70
2016,08,18,10,57,25.80
2016,08,18,10,58,25.80
2016,08,18,10,59,25.70
2016,08,18,11,00,25.70
2016,08,18,11,01,25.70
2016,08,18,11,02,25.70
2016,08,18,11,03,25.70
2016,08,18,11,04,25.90
2016,08,18,11,05,26.00
2016,08,18,11,06,26.10
2016,08,18,11,07,26.20
2016,08,18,11,08,26.20
2016,08,18,11,09,26.30
2016,08,18,11,10,26.30
2016,08,18,11,11,26.30
2016,08,18,11,12,26.40
2016,08,18,11,13,26.40
2016,08,18,11,14,26.40
2016,08,18,11,15,26.40
2016,08,18,11,16,26.40
2016,08,18,11,17,26.40
2016,08,18,11,18,26.50
2016,08,18,11,19,26.50
2016,08,18,11,20,26.60
2016,08,18,11,21,26.60
2016,08,18,11,22,26.60
2016,08,18,11,23,26.60
2016,08,18,11,24,26.60
2016,08,18,11,25,26.70
2016,08,18,11,26,26.80
2016,08,18,11,27,26.80
2016,08,18,11,28,26.90
2016,08,18,11,29,26.90
2016,08,18,11,30,27.00
2016,08,18,11,31,27.00
2016,08,18,11,32,27.00
2016,08,18,11,33,27.00
2016,08,18,11,34,27.10
2016,08,18,11,35,27.10
2016,08,18,11,36,27.00
2016,08,18,11,37,27.00
2016,08,18,11,38,27.00
2016,08,18,11,39,27.10
2016,08,18,11,40,27.20
2016,08,18,11,41,27.20
2016,08,18,11,42,27.30
2016,08,18,11,43,27.30
2016,08,18,11,44,27.40
2016,08,18,11,45,27.40
2016,08,18,11,46,27.40
2016,08,18,11,47,27.40
2016,08,18,11,48,27.40
2016,08,18,11,49,27.40
2016,08,18,11,50,27.40
2016,08,18,11,51,27.40
2016,08,18,11,52,27.40
2016,08,18,11,53,27.50
2016,08,18,11,54,27.40
2016,08,18,11,55,27.40
2016,08,18,11,56,27.40
2016,08,18,11,57,27.40
2016,08,18,11,58,27.50
2016,08,18,11,59,27.60
2016,08,18,12,00,27.60
2016,08,18,12,01,27.60
2016,08,18,12,02,27.60
2016,08,18,12,03,27.60
2016,08,18,12,04,27.60
2016,08,18,12,05,27.60
2016,08,18,12,06,27.70
2016,08,18,12,07,27.70
2016,08,18,12,08,27.70
2016,08,18,12,09,27.70
2016,08,18,12,10,27.70
2016,08,18,12,11,27.80
2016,08,18,12,12,27.80
2016,08,18,12,13,27.80
2016,08,18,12,14,27.70
2016,08,18,12,15,27.60
2016,08,18,12,16,27.50
2016,08,18,12,17,27.40
2016,08,18,12,18,27.40
2016,08,18,12,19,27.40
2016,08,18,12,20,27.30
2016,08,18,12,21,27.30
2016,08,18,12,22,27.30
2016,08,18,12,23,27.30
2016,08,18,12,24,27.40
2016,08,18,12,25,27.40
2016,08,18,12,26,27.40
2016,08,18,12,27,27.40
2016,08,18,12,28,27.50
2016,08,18,12,29,27.60
2016,08,18,12,30,27.70
2016,08,18,12,31,27.70
2016,08,18,12,32,27.80
2016,08,18,12,33,27.70
2016,08,18,12,34,27.70
2016,08,18,12,35,27.80
2016,08,18,12,36,27.80
2016,08,18,12,37,27.90
2016,08,18,12,38,27.90
2016,08,18,12,39,28.00
2016,08,18,12,40,28.00
2016,08,18,12,41,28.00
2016,08,18,12,42,28.00
2016,08,18,12,43,27.90
2016,08,18,12,44,27.90
2016,08,18,12,45,28.00
2016,08,18,12,46,28.10
2016,08,18,12,47,28.10
2016,08,18,12,48,28.20
2016,08,18,12,49,28.20
2016,08,18,12,50,28.20
2016,08,18,12,51,28.20
2016,08,18,12,52,28.20
2016,08,18,12,53,28.20
2016,08,18,12,54,28.20
2016,08,18,12,55,28.30
2016,08,18,12,56,28.30
2016,08,18,12,57,28.30
2016,08,18,12,58,28.40
2016,08,18,12,59,28.40
2016,08,18,13,00,28.50
2016,08,18,13,01,28.60
2016,08,18,13,02,28.60
2016,08,18,13,03,28.70
2016,08,18,13,04,28.70
2016,08,18,13,05,28.70
2016,08,18,13,06,28.70
2016,08,18,13,07,28.80
2016,08,18,13,08,28.80
2016,08,18,13,09,28.80
2016,08,18,13,10,28.80
2016,08,18,13,11,28.80
2016,08,18,13,12,28.80
2016,08,18,13,13,28.70
2016,08,18,13,14,28.70
2016,08,18,13,15,28.60
2016,08,18,13,16,28.60
2016,08,18,13,17,28.60
2016,08,18,13,18,28.60
2016,08,18,13,19,28.60
2016,08,18,13,20,28.70
2016,08,18,13,21,28.80
2016,08,18,13,22,28.80
2016,08,18,13,23,28.80
2016,08,18,13,24,28.90
2016,08,18,13,25,28.80
2016,08,18,13,26,28.80
2016,08,18,13,27,28.80
2016,08,18,13,28,28.80
2016,08,18,13,29,28.80
2016,08,18,13,30,28.80
2016,08,18,13,31,28.70
2016,08,18,13,32,28.70
2016,08,18,13,33,28.70
2016,08,18,13,34,28.70
2016,08,18,13,35,28.70
2016,08,18,13,36,28.70
2016,08,18,13,37,28.60
2016,08,18,13,38,28.60
2016,08,18,13,39,28.70
2016,08,18,13,40,28.70
2016,08,18,13,41,28.70
2016,08,18,13,42,28.80
2016,08,18,13,43,28.80
2016,08,18,13,44,28.80
2016,08,18,13,45,28.80
2016,08,18,13,46,28.80
2016,08,18,13,47,28.80
2016,08,18,13,48,28.90
2016,08,18,13,49,28.90
2016,08,18,13,50,28.90
2016,08,18,13,51,28.80
2016,08,18,13,52,28.80
2016,08,18,13,53,28.80
2016,08,18,13,54,28.90
2016,08,18,13,55,28.90
2016,08,18,13,56,28.90
2016,08,18,13,57,28.90
2016,08,18,13,58,28.80
2016,08,18,13,59,28.80
2016,08,18,14,00,28.80
2016,08,18,14,01,28.80
2016,08,18,14,02,28.90
2016,08,18,14,03,28.90
2016,08,18,14,04,28.90
2016,08,18,14,05,29.00
2016,08,18,14,06,29.00
2016,08,18,14,07,29.00
2016,08,18,14,08,29.00
2016,08,18,14,09,29.00
2016,08,18,14,10,29.10
2016,08,18,14,11,29.10
2016,08,18,14,12,29.20
2016,08,18,14,13,29.20
2016,08,18,14,14,29.30
2016,08,18,14,15,29.40
2016,08,18,14,16,29.30
2016,08,18,14,17,29.30
2016,08,18,14,18,29.20
2016,08,18,14,19,29.20
2016,08,18,14,20,29.20
2016,08,18,14,21,29.20
2016,08,18,14,22,29.30
2016,08,18,14,23,29.30
2016,08,18,14,24,29.40
2016,08,18,14,25,29.50
2016,08,18,14,26,29.60
2016,08,18,14,27,29.60
2016,08,18,14,28,29.60
2016,08,18,14,29,29.60
2016,08,18,14,30,29.50
2016,08,18,14,31,29.50
2016,08,18,14,32,29.40
2016,08,18,14,33,29.50
2016,08,18,14,34,29.50
2016,08,18,14,35,29.50
2016,08,18,14,36,29.50
2016,08,18,14,37,29.40
2016,08,18,14,38,29.40
2016,08,18,14,39,29.40
2016,08,18,14,40,29.40
2016,08,18,14,41,29.50
2016,08,18,14,42,29.60
2016,08,18,14,43,29.70
2016,08,18,14,44,29.80
2016,08,18,14,45,29.90
2016,08,18,14,46,29.90
2016,08,18,14,47,29.90
2016,08,18,14,48,29.90
2016,08,18,14,49,29.90
2016,08,18,14,50,29.90
2016,08,18,14,51,30.00
2016,08,18,14,52,30.00
2016,08,18,14,53,30.00
2016,08,18,14,54,30.00
2016,08,18,14,55,30.00
2016,08,18,14,56,30.10
2016,08,18,14,57,30.10
2016,08,18,14,58,30.10
2016,08,18,14,59,30.10
2016,08,18,15,00,30.20
2016,08,18,15,01,30.20
2016,08,18,15,02,30.20
2016,08,18,15,03,30.20
2016,08,18,15,04,30.20
2016,08,18,15,05,30.20
2016,08,18,15,06,30.20
2016,08,18,15,07,30.20
2016,08,18,15,08,30.20
2016,08,18,15,09,30.20
2016,08,18,15,10,30.30
2016,08,18,15,11,30.30
2016,08,18,15,12,30.30
2016,08,18,15,13,30.20
2016,08,18,15,14,30.20
2016,08,18,15,15,30.10
2016,08,18,15,16,30.10
2016,08,18,15,17,30.20
2016,08,18,15,18,30.20
2016,08,18,15,19,30.20
2016,08,18,15,20,30.20
2016,08,18,15,21,30.20
2016,08,18,15,22,30.10
2016,08,18,15,23,30.00
2016,08,18,15,24,30.00
2016,08,18,15,25,30.00
2016,08,18,15,26,29.90
2016,08,18,15,27,29.90
2016,08,18,15,28,29.90
2016,08,18,15,29,29.90
2016,08,18,15,30,29.90
2016,08,18,15,31,29.90
2016,08,18,15,32,29.90
2016,08,18,15,33,29.90
2016,08,18,15,34,29.90
2016,08,18,15,35,29.90
2016,08,18,15,36,29.90
2016,08,18,15,37,30.00
2016,08,18,15,38,30.00
2016,08,18,15,39,30.10
2016,08,18,15,40,30.10
2016,08,18,15,41,30.10
2016,08,18,15,42,30.10
2016,08,18,15,43,30.10
2016,08,18,15,44,30.10
2016,08,18,15,45,30.10
2016,08,18,15,46,30.10
2016,08,18,15,47,30.00
2016,08,18,15,48,30.10
2016,08,18,15,49,30.10
2016,08,18,15,50,30.10
2016,08,18,15,51,30.00
2016,08,18,15,52,30.00
2016,08,18,15,53,30.00
2016,08,18,15,54,29.90
2016,08,18,15,55,29.90
2016,08,18,15,56,29.80
2016,08,18,15,57,29.80
2016,08,18,15,58,29.80
2016,08,18,15,59,29.80
2016,08,18,16,00,29.90
2016,08,18,16,01,29.90
2016,08,18,16,02,29.90
2016,08,18,16,03,29.90
2016,08,18,16,04,30.00
2016,08,18,16,05,30.00
2016,08,18,16,06,30.00
2016,08,18,16,07,30.10
2016,08,18,16,08,30.20
2016,08,18,16,09,30.20
2016,08,18,16,10,30.20
2016,08,18,16,11,30.20
2016,08,18,16,12,30.20
2016,08,18,16,13,30.20
2016,08,18,16,14,30.30
2016,08,18,16,15,30.30
2016,08,18,16,16,30.30
2016,08,18,16,17,30.30
2016,08,18,16,18,30.40
2016,08,18,16,19,30.40
2016,08,18,16,20,30.40
2016,08,18,16,21,30.50
2016,08,18,16,22,30.60
2016,08,18,16,23,30.60
2016,08,18,16,24,30.60
2016,08,18,16,25,30.70
2016,08,18,16,26,30.70
2016,08,18,16,27,30.80
2016,08,18,16,28,30.80
2016,08,18,16,29,30.80
2016,08,18,16,30,30.80
2016,08,18,16,31,30.80
2016,08,18,16,32,30.80
2016,08,18,16,33,30.80
2016,08,18,16,34,30.80
2016,08,18,16,35,30.80
2016,08,18,16,36,30.70
2016,08,18,16,37,30.70
2016,08,18,16,38,30.70
2016,08,18,16,39,30.70
2016,08,18,16,40,30.70
2016,08,18,16,41,30.70
2016,08,18,16,42,30.70
2016,08,18,16,43,30.70
2016,08,18,16,44,30.70
2016,08,18,16,45,30.80
2016,08,18,16,46,30.80
2016,08,18,16,47,30.80
2016,08,18,16,48,30.80
2016,08,18,16,49,30.80
2016,08,18,16,50,30.80
2016,08,18,16,51,30.80
2016,08,18,16,52,30.80
2016,08,18,16,53,30.80
2016,08,18,16,54,30.80
2016,08,18,16,55,30.80
2016,08,18,16,56,30.80
2016,08,18,16,57,30.80
2016,08,18,16,58,30.80
2016,08,18,16,59,30.80
2016,08,18,17,00,30.80
2016,08,18,17,01,30.80
2016,08,18,17,02,30.80
2016,08,18,17,03,30.80
2016,08,18,17,04,30.80
2016,08,18,17,05,30.70
2016,08,18,17,06,30.70
2016,08,18,17,07,30.70
2016,08,18,17,08,30.70
2016,08,18,17,09,30.70
2016,08,18,17,10,30.70
2016,08,18,17,11,30.70
2016,08,18,17,12,30.70
2016,08,18,17,13,30.60
2016,08,18,17,14,30.60
2016,08,18,17,15,30.60
2016,08,18,17,16,30.60
2016,08,18,17,17,30.60
2016,08,18,17,18,30.60
2016,08,18,17,19,30.60